Lid_Strength_Index
11 11 10 9 7 5 4 3 2 1 3 1 1 2 2 2 1 1 2 2 2 2
12 11 10 9 8 6 3 2 1 3 4 3 1 3 3 2 3 1 1 2 2 2
12 11 10 9 10 8 6 4 4 6 7 7 4 3 3 2 2 2 2 2 2 2
13 12 11 9 11 10 8 8 7 7 8 8 8 8 2 2 2 2 2 2 2 2
14 13 13 11 12 11 10 9 9 9 10 10 11 12 12 10 9 9 10 9 7 9
14 14 14 14 12 12 12 12 12 12 12 12 12 12 13 14 13 13 12 13 13 13
15 14 14 14 14 14 14 13 13 13 13 13 13 13 13 14 15 15 14 15 16 15
15 15 14 14 16 16 16 15 15 15 14 14 15 15 14 15 15 16 16 16 16 17
17 16 17 16 17 18 18 18 16 16 16 15 15 14 15 16 16 16 17 17 17 16
17 18 18 18 18 19 19 19 19 18 16 16 16 14 14 15 17 16 17 18 17 17
16 17 18 18 19 19 20 20 19 19 18 17 16 16 15 15 16 16 16 16 17 17
15 16 16 17 18 18 18 19 19 19 19 18 17 16 17 17 17 17 17 16 16 17
15 16 16 16 17 17 17 18 18 18 18 17 17 15 15 16 16 17 17 17 16 15
15 15 16 17 16 17 18 18 18 18 18 18 16 15 14 14 16 16 16 16 16 16